Regional Weather Roundup
Issued by NWS

Home | Current Version | Previous Version | Graphics & Text | Print | Product List | Glossary On
Versions: 1 2 3 4 5 6 7 8 9 10 11 12 13 14 15 16 17 18 19 20 21 22 23 24 25 26 27 28 29 30 31 32 33 34 35 36 37 38 39 40 41 42 43 44 45 46 47 48 49 50
000
ASUS43 KIND 290109
RWRIN

WEATHER ROUNDUP FOR INDIANA
NATIONAL WEATHER SERVICE INDIANAPOLIS IN
800 PM EST WED JAN 28 2015

NOTE: "FAIR" INDICATES FEW OR NO CLOUDS BELOW 12,000 FEET WITH NO
SIGNIFICANT WEATHER AND/OR OBSTRUCTIONS TO VISIBILITY.

* - STATION DOES NOT REPORT WEATHER SUCH AS PRECIPITATION OR FOG.

+ - STATION NOT QUALITY CONTROLLED BY THE NATIONAL WEATHER SERVICE.
    USE DATA WITH CAUTION...ESPECIALLY DEWPOINT AND RELATIVE
    HUMIDITY OBSERVATIONS.

INZ001>003-010>013-019-020-290200-
NORTHWEST INDIANA

CITY           SKY/WX    TMP DP  RH WIND       PRES   REMARKS
GARY /AIRPORT/ CLOUDY    34  16  47 SE17G29   30.01F WCI  23
KNOX *+        CLOUDY    30   8  38 SE17G23   30.05F WCI  18
LA PORTE +     CLOUDY    31  22  67 SE12      30.04F WCI  22
MICHIGAN CITY+ CLOUDY    30  16  55 SE9G18    30.03F WCI  22
MONTICELLO +   MOCLDY    32  21  65 SE8       30.06F WCI  25
RENSSELAER +   MOCLDY    32  27  80 SE14G22   30.03F WCI  22
VALPARAISO     CLOUDY    30  20  66 SE15      30.03F WCI  19

$$

LMZ046-743>745-290200-
SOUTHERN LAKE MICHIGAN

STATION/POSITION TIME  TEMP WIND        PRES
                       AIR  DIR/SP/G
                 (UTC) (F)  (DEG/KT/KT) (MB)
MICHIGAN CITY    0100   31  130/ 19/ 26   N/A

$$

INZ004-005-014>016-021>024-290200-
NORTH CENTRAL INDIANA

CITY           SKY/WX    TMP DP  RH WIND       PRES   REMARKS
ELKHART        MOCLDY    27  12  54 SE14      30.09F WCI  15
GOSHEN         MOCLDY    26  16  65 SE15      30.10F WCI  14
LOGANSPORT +   MOCLDY    30  23  74 SE14      30.09F WCI  20
PERU/GRISSOM   MOCLDY    31  22  69 SE16      30.08F WCI  20
ROCHESTER +    CLOUDY    32  23  69 SE12      30.09F WCI  23
SOUTH BEND     MOCLDY    28  17  63 SE17      30.07F WCI  16
WARSAW +       MOCLDY    27  19  74 SE9G16    30.11S WCI  17

$$

INZ006>009-017-018-025>027-290200-
NORTHEAST INDIANA

CITY           SKY/WX    TMP DP  RH WIND       PRES   REMARKS
ANGOLA *+      CLEAR     21  14  73 SE10      30.14F WCI  10
AUBURN +       MOCLDY    25  16  68 SE6       30.17F WCI  18
FORT WAYNE     MOCLDY    25  17  72 SE10      30.16F WCI  15
HUNTINGTON +   FAIR      26  15  61 SE8       30.13F WCI  18

$$

INZ028-029-035-036-043>045-051>053-290200-
WEST CENTRAL INDIANA

CITY           SKY/WX    TMP DP  RH WIND       PRES   REMARKS
CRAWFORDSVL +  FAIR      32  15  49 SE15G21   30.08S WCI  21
GREENCASTLE +  CLEAR     32  14  47 SE13      30.10F WCI  22
LAFAYETTE      PTCLDY    33  19  56 SE14G20   30.07F WCI  23
TERRE HAUTE    FAIR      34  21  59 SE13      30.08F WCI  25

$$

INZ030>032-037>040-046>048-054>057-064-065-290200-
CENTRAL INDIANA

CITY           SKY/WX    TMP DP  RH WIND       PRES   REMARKS
CP ATTERBURY + CLEAR     32  19  59 SE10      30.16F WCI  24
GREENWOOD *+   PTCLDY    32  16  51 SE10      30.14  WCI  24
INDIANAPOLIS   MOCLDY    30  17  58 SE15      30.11F WCI  19
-EAGLE CREEK   CLEAR     33  17  51 SE13G20   30.11F WCI  24
KOKOMO *+      PTCLDY    30  21  69 S16G22    30.10F WCI  19
MARION +       MOCLDY    29  20  70 SE10      30.12F WCI  20
MT COMFORT *+  MOCLDY    32  14  47 S13       30.14F WCI  22
SHELBYVILLE    MOCLDY    34  20  56 SE13      30.15F WCI  25
ZIONSVILLE +   PTCLDY    32  18  56 SE17      30.11F WCI  21

$$

INZ033-034-041-042-049-050-058-059-290200-
EAST CENTRAL INDIANA

CITY           SKY/WX    TMP DP  RH WIND       PRES   REMARKS
MUNCIE         MOCLDY    30  19  63 S10       30.14F WCI  21

$$

INZ060-061-067>069-081>083-085>088-290200-
SOUTHWEST INDIANA

CITY           SKY/WX    TMP DP  RH WIND       PRES   REMARKS
EVANSVILLE     CLEAR     41  22  46 SE8       30.13F
HUNTINGBURG *+ CLEAR     37  19  48 SE10      30.15F
WASHINGTON +   PTCLDY    34  20  56 SE10      30.12F WCI  26

$$

INZ062-063-066-070>080-084-089>092-290200-
SOUTH CENTRAL AND SOUTHEAST INDIANA

CITY           SKY/WX    TMP DP  RH WIND       PRES   REMARKS
BLOOMINGTON    CLEAR     34  16  47 SE13      30.12F WCI  25
SEYMOUR +      CLEAR     34  19  55 SE9       30.17  WCI  26

$$




USA.gov is the U.S. government's official web portal to all federal, state and local government web resources and services.